| time (UTC) | temp F | wind direction | speed MPH | gust MPH | rain 1hr in | rain 24hr in | rain mn in | humidity % | barometer mb |
| 20260506012003 | 61 | 24 | 3.0 | 5.0 | 0.00 | 0.00 | 0.00 | 73 | 1009.3 |
| 20260506011503 | 61 | 23 | 3.0 | 4.0 | 0.00 | 0.00 | 0.00 | 73 | 1009.3 |
| 20260506011003 | 61 | 24 | 3.0 | 4.0 | 0.00 | 0.00 | 0.00 | 73 | 1009.3 |
| 20260506010503 | 61 | 45 | 1.0 | 3.0 | 0.00 | 0.00 | 0.00 | 73 | 1009.4 |
| 20260506010003 | 61 | 46 | 1.0 | 3.0 | 0.00 | 0.00 | 0.00 | 73 | 1009.4 |
| 20260506005503 | 61 | 39 | 3.0 | 6.0 | 0.00 | 0.00 | 0.00 | 73 | 1009.3 |
| 20260506005003 | 61 | 29 | 4.0 | 7.0 | 0.00 | 0.00 | 0.00 | 73 | 1009.3 |
| 20260506004503 | 61 | 22 | 3.0 | 4.0 | 0.00 | 0.00 | 0.00 | 73 | 1009.3 |
| 20260506004003 | 61 | 22 | 2.0 | 4.0 | 0.00 | 0.00 | 0.00 | 73 | 1009.3 |
| 20260506003503 | 61 | 31 | 1.0 | 4.0 | 0.00 | 0.00 | 0.00 | 73 | 1009.4 |
| 20260506003003 | 61 | 45 | 2.0 | 4.0 | 0.00 | 0.00 | 0.00 | 73 | 1009.4 |
| 20260506002503 | 61 | 45 | 1.0 | 3.0 | 0.00 | 0.00 | 0.00 | 73 | 1009.5 |
| 20260506002003 | 61 | 35 | 2.0 | 5.0 | 0.00 | 0.00 | 0.00 | 73 | 1009.5 |
| 20260506001503 | 61 | 51 | 2.0 | 4.0 | 0.00 | 0.00 | 0.00 | 73 | 1009.5 |
| 20260506001003 | 61 | 48 | 3.0 | 6.0 | 0.00 | 0.00 | 0.00 | 73 | 1009.5 |
| 20260506000503 | 61 | 51 | 3.0 | 6.0 | 0.00 | 0.00 | 0.00 | 73 | 1009.5 |
| 20260506000003 | 61 | 58 | 2.0 | 6.0 | 0.00 | 0.00 | 0.00 | 73 | 1009.5 |
| 20260505235503 | 61 | 53 | 3.0 | 7.0 | 0.00 | 0.00 | 0.00 | 73 | 1009.6 |
| 20260505235003 | 61 | 58 | 3.0 | 6.0 | 0.00 | 0.00 | 0.00 | 73 | 1009.6 |
| 20260505234503 | 61 | 62 | 2.0 | 5.0 | 0.00 | 0.00 | 0.00 | 73 | 1009.6 |
| 20260505234003 | 61 | 55 | 1.0 | 3.0 | 0.00 | 0.00 | 0.00 | 73 | 1009.7 |
| 20260505233503 | 61 | 65 | 1.0 | 3.0 | 0.00 | 0.00 | 0.00 | 73 | 1009.6 |
| 20260505233003 | 61 | 74 | 1.0 | 4.0 | 0.00 | 0.00 | 0.00 | 73 | 1009.6 |
| 20260505232503 | 61 | 69 | 2.0 | 4.0 | 0.00 | 0.00 | 0.00 | 73 | 1009.7 |
| 20260505232003 | 61 | 56 | 3.0 | 5.0 | 0.00 | 0.00 | 0.00 | 73 | 1009.7 |
| 20260505231503 | 61 | 49 | 4.0 | 6.0 | 0.00 | 0.00 | 0.00 | 73 | 1009.8 |
| 20260505231003 | 61 | 53 | 4.0 | 7.0 | 0.00 | 0.00 | 0.00 | 73 | 1009.8 |
| 20260505230503 | 61 | 48 | 3.0 | 6.0 | 0.00 | 0.00 | 0.00 | 73 | 1009.9 |
| 20260505230003 | 61 | 50 | 2.0 | 6.0 | 0.00 | 0.00 | 0.00 | 73 | 1010.0 |
| 20260505225503 | 61 | 51 | 2.0 | 4.0 | 0.00 | 0.00 | 0.00 | 73 | 1010.0 |
| 20260505225003 | 61 | 61 | 2.0 | 5.0 | 0.00 | 0.00 | 0.00 | 72 | 1010.0 |
| 20260505224503 | 61 | 47 | 3.0 | 6.0 | 0.00 | 0.00 | 0.00 | 72 | 1010.2 |
| 20260505224003 | 61 | 64 | 2.0 | 4.0 | 0.00 | 0.00 | 0.00 | 72 | 1010.0 |
| 20260505223503 | 61 | 58 | 2.0 | 5.0 | 0.00 | 0.00 | 0.00 | 72 | 1010.1 |
| 20260505223003 | 62 | 68 | 1.0 | 5.0 | 0.00 | 0.00 | 0.00 | 72 | 1010.2 |
| 20260505222503 | 62 | 56 | 2.0 | 5.0 | 0.00 | 0.00 | 0.00 | 72 | 1010.1 |
| 20260505222003 | 62 | 62 | 2.0 | 4.0 | 0.00 | 0.00 | 0.00 | 72 | 1010.2 |
| 20260505221503 | 62 | 56 | 1.0 | 3.0 | 0.00 | 0.00 | 0.00 | 72 | 1010.3 |
| 20260505221003 | 62 | 50 | 1.0 | 4.0 | 0.00 | 0.00 | 0.00 | 72 | 1010.3 |
| 20260505220503 | 62 | 51 | 3.0 | 5.0 | 0.00 | 0.00 | 0.00 | 72 | 1010.4 |
| 20260505220003 | 62 | 52 | 2.0 | 3.0 | 0.00 | 0.00 | 0.00 | 72 | 1010.3 |
| 20260505215503 | 62 | 45 | 0.0 | 2.0 | 0.00 | 0.00 | 0.00 | 72 | 1010.3 |
| 20260505215003 | 62 | 45 | 0.0 | 3.0 | 0.00 | 0.00 | 0.00 | 72 | 1010.3 |
| 20260505214503 | 62 | 64 | 1.0 | 2.0 | 0.00 | 0.00 | 0.00 | 72 | 1010.4 |
| 20260505214003 | 62 | 96 | 1.0 | 4.0 | 0.00 | 0.00 | 0.00 | 72 | 1010.5 |
| 20260505213506 | 62 | 96 | 1.0 | 3.0 | 0.00 | 0.00 | 0.00 | 72 | 1010.6 |
| 20260505213003 | 62 | 73 | 1.0 | 5.0 | 0.00 | 0.00 | 0.00 | 72 | 1010.5 |
| 20260505212503 | 62 | 66 | 1.0 | 4.0 | 0.00 | 0.00 | 0.00 | 72 | 1010.6 |
| 20260505212003 | 62 | 76 | 1.0 | 4.0 | 0.00 | 0.00 | 0.00 | 72 | 1010.6 |
| 20260505211503 | 62 | 80 | 1.0 | 5.0 | 0.00 | 0.00 | 0.00 | 72 | 1010.6 |
| 20260505211003 | 62 | 83 | 2.0 | 5.0 | 0.00 | 0.00 | 0.00 | 72 | 1010.7 |
| 20260505210003 | 62 | 56 | 2.0 | 5.0 | 0.00 | 0.00 | 0.00 | 72 | 1010.7 |
| 20260505205503 | 62 | 58 | 2.0 | 5.0 | 0.00 | 0.00 | 0.00 | 72 | 1010.9 |
| 20260505205003 | 62 | 59 | 1.0 | 4.0 | 0.00 | 0.00 | 0.00 | 72 | 1010.9 |
| 20260505204503 | 62 | 59 | 0.0 | 3.0 | 0.00 | 0.00 | 0.00 | 72 | 1011.0 |
| 20260505204003 | 62 | 99 | 1.0 | 3.0 | 0.00 | 0.00 | 0.00 | 72 | 1010.9 |
| 20260505203503 | 62 | 119 | 1.0 | 4.0 | 0.00 | 0.00 | 0.00 | 72 | 1010.9 |
| 20260505203003 | 62 | 65 | 1.0 | 5.0 | 0.00 | 0.00 | 0.00 | 72 | 1010.8 |
| 20260505202503 | 62 | 75 | 1.0 | 3.0 | 0.00 | 0.00 | 0.00 | 72 | 1010.9 |
| 20260505202003 | 62 | 101 | 0.0 | 3.0 | 0.00 | 0.00 | 0.00 | 72 | 1010.9 |
| 20260505201503 | 62 | 94 | 1.0 | 3.0 | 0.00 | 0.00 | 0.00 | 72 | 1010.9 |
| 20260505201003 | 62 | 69 | 1.0 | 4.0 | 0.00 | 0.00 | 0.00 | 72 | 1010.8 |
| 20260505200503 | 62 | 86 | 1.0 | 2.0 | 0.00 | 0.00 | 0.00 | 72 | 1010.8 |
| 20260505200003 | 62 | 111 | 1.0 | 4.0 | 0.00 | 0.00 | 0.00 | 72 | 1011.0 |
| 20260505195503 | 62 | 109 | 1.0 | 4.0 | 0.00 | 0.00 | 0.00 | 72 | 1011.0 |
| 20260505195003 | 62 | 79 | 1.0 | 3.0 | 0.00 | 0.00 | 0.00 | 72 | 1010.9 |
| 20260505194503 | 62 | 72 | 1.0 | 3.0 | 0.00 | 0.00 | 0.00 | 72 | 1010.9 |
| 20260505194003 | 62 | 89 | 1.0 | 4.0 | 0.00 | 0.00 | 0.00 | 72 | 1010.9 |
| 20260505193503 | 62 | 78 | 1.0 | 4.0 | 0.00 | 0.00 | 0.00 | 72 | 1010.9 |
| 20260505193003 | 62 | 60 | 1.0 | 2.0 | 0.00 | 0.00 | 0.00 | 72 | 1010.9 |
| 20260505192503 | 62 | 51 | 1.0 | 4.0 | 0.00 | 0.00 | 0.00 | 72 | 1010.8 |
| 20260505192003 | 62 | 70 | 1.0 | 4.0 | 0.00 | 0.00 | 0.00 | 72 | 1010.8 |
| 20260505191503 | 62 | 64 | 1.0 | 5.0 | 0.00 | 0.00 | 0.00 | 72 | 1010.6 |
| 20260505191003 | 63 | 69 | 2.0 | 4.0 | 0.00 | 0.00 | 0.00 | 72 | 1010.8 |
| 20260505190503 | 63 | 74 | 1.0 | 4.0 | 0.00 | 0.00 | 0.00 | 72 | 1010.8 |
| 20260505190003 | 63 | 79 | 1.0 | 4.0 | 0.00 | 0.00 | 0.00 | 72 | 1010.7 |
| 20260505185503 | 63 | 75 | 1.0 | 5.0 | 0.00 | 0.00 | 0.00 | 72 | 1010.5 |
| 20260505185003 | 63 | 55 | 1.0 | 4.0 | 0.00 | 0.00 | 0.00 | 72 | 1010.4 |
| 20260505184503 | 63 | 60 | 1.0 | 5.0 | 0.00 | 0.00 | 0.00 | 72 | 1010.5 |
| 20260505184003 | 63 | 62 | 1.0 | 4.0 | 0.00 | 0.00 | 0.00 | 72 | 1010.6 |
| 20260505183503 | 63 | 96 | 1.0 | 4.0 | 0.00 | 0.00 | 0.00 | 72 | 1010.6 |
| 20260505183003 | 63 | 99 | 1.0 | 5.0 | 0.00 | 0.00 | 0.00 | 72 | 1010.5 |
| 20260505182503 | 63 | 111 | 1.0 | 4.0 | 0.00 | 0.00 | 0.00 | 72 | 1010.5 |
| 20260505182003 | 63 | 111 | 1.0 | 5.0 | 0.00 | 0.00 | 0.00 | 72 | 1010.5 |
| 20260505181503 | 63 | 80 | 1.0 | 5.0 | 0.00 | 0.00 | 0.00 | 72 | 1010.6 |
| 20260505181003 | 63 | 103 | 1.0 | 5.0 | 0.00 | 0.00 | 0.00 | 72 | 1010.5 |
| 20260505180503 | 63 | 118 | 2.0 | 6.0 | 0.00 | 0.00 | 0.00 | 72 | 1010.5 |
| 20260505180003 | 63 | 83 | 1.0 | 5.0 | 0.00 | 0.00 | 0.00 | 72 | 1010.4 |
| 20260505175503 | 63 | 113 | 1.0 | 6.0 | 0.00 | 0.00 | 0.00 | 72 | 1010.5 |
| 20260505175003 | 63 | 126 | 3.0 | 8.0 | 0.00 | 0.00 | 0.00 | 72 | 1010.4 |
| 20260505174503 | 64 | 123 | 2.0 | 6.0 | 0.00 | 0.00 | 0.00 | 72 | 1010.5 |
| 20260505174003 | 64 | 126 | 2.0 | 6.0 | 0.00 | 0.00 | 0.00 | 72 | 1010.5 |
| 20260505173503 | 64 | 126 | 2.0 | 6.0 | 0.00 | 0.00 | 0.00 | 72 | 1010.6 |
| 20260505173003 | 64 | 131 | 3.0 | 7.0 | 0.00 | 0.00 | 0.00 | 72 | 1010.3 |
| 20260505172503 | 64 | 127 | 3.0 | 7.0 | 0.00 | 0.00 | 0.00 | 72 | 1010.4 |
| 20260505172003 | 64 | 116 | 2.0 | 8.0 | 0.00 | 0.00 | 0.00 | 72 | 1010.4 |
| 20260505171503 | 64 | 127 | 3.0 | 8.0 | 0.00 | 0.00 | 0.00 | 72 | 1010.4 |
| 20260505171003 | 64 | 120 | 3.0 | 6.0 | 0.00 | 0.00 | 0.00 | 72 | 1010.4 |
| 20260505170503 | 64 | 94 | 2.0 | 8.0 | 0.00 | 0.00 | 0.00 | 72 | 1010.6 |
| 20260505170003 | 64 | 87 | 2.0 | 6.0 | 0.00 | 0.00 | 0.00 | 72 | 1010.6 |
| 20260505165503 | 64 | 124 | 2.0 | 6.0 | 0.00 | 0.00 | 0.00 | 72 | 1010.7 |
| 20260505165003 | 64 | 88 | 2.0 | 7.0 | 0.00 | 0.00 | 0.00 | 71 | 1010.6 |
| 20260505164503 | 64 | 108 | 2.0 | 6.0 | 0.00 | 0.00 | 0.00 | 72 | 1010.7 |
| 20260505164003 | 64 | 85 | 2.0 | 8.0 | 0.00 | 0.00 | 0.00 | 71 | 1010.7 |
| 20260505163507 | 64 | 73 | 2.0 | 6.0 | 0.00 | 0.00 | 0.00 | 71 | 1010.7 |
| 20260505163003 | 64 | 109 | 2.0 | 9.0 | 0.00 | 0.00 | 0.00 | 72 | 1010.8 |
| 20260505162503 | 64 | 85 | 2.0 | 6.0 | 0.00 | 0.00 | 0.00 | 71 | 1010.8 |
| 20260505162003 | 64 | 106 | 2.0 | 5.0 | 0.00 | 0.00 | 0.00 | 72 | 1010.9 |
| 20260505161503 | 64 | 94 | 2.0 | 6.0 | 0.00 | 0.00 | 0.00 | 72 | 1010.8 |
| 20260505161003 | 64 | 105 | 2.0 | 10.0 | 0.00 | 0.00 | 0.00 | 71 | 1010.8 |
| 20260505160503 | 64 | 128 | 2.0 | 9.0 | 0.00 | 0.00 | 0.00 | 71 | 1010.9 |
| 20260505153003 | 65 | 140 | 3.0 | 9.0 | 0.00 | 0.00 | 0.00 | 71 | 1011.1 |
| 20260505152503 | 65 | 122 | 3.0 | 9.0 | 0.00 | 0.00 | 0.00 | 71 | 1011.0 |
| 20260505152003 | 65 | 146 | 3.0 | 8.0 | 0.00 | 0.00 | 0.00 | 71 | 1011.1 |
| 20260505151503 | 65 | 136 | 3.0 | 9.0 | 0.00 | 0.00 | 0.00 | 71 | 1011.0 |
| 20260505151003 | 65 | 139 | 3.0 | 8.0 | 0.00 | 0.00 | 0.00 | 71 | 1011.0 |
| 20260505150503 | 65 | 135 | 2.0 | 6.0 | 0.00 | 0.00 | 0.00 | 71 | 1011.0 |
| 20260505140503 | 66 | 141 | 3.0 | 8.0 | 0.00 | 0.00 | 0.00 | 71 | 1011.3 |
| 20260505125003 | 65 | 140 | 4.0 | 9.0 | 0.00 | 0.00 | 0.00 | 71 | 1011.9 |
| 20260505124503 | 65 | 147 | 3.0 | 9.0 | 0.00 | 0.00 | 0.00 | 71 | 1011.9 |
| 20260505124003 | 65 | 140 | 2.0 | 6.0 | 0.00 | 0.00 | 0.00 | 71 | 1012.0 |
| 20260505123503 | 65 | 136 | 2.0 | 7.0 | 0.00 | 0.00 | 0.00 | 71 | 1012.0 |
| 20260505123003 | 65 | 139 | 3.0 | 7.0 | 0.00 | 0.00 | 0.00 | 71 | 1012.2 |
| 20260505122503 | 65 | 145 | 3.0 | 8.0 | 0.00 | 0.00 | 0.00 | 71 | 1012.2 |
| 20260505122003 | 65 | 148 | 4.0 | 9.0 | 0.00 | 0.00 | 0.00 | 71 | 1012.2 |
| 20260505121503 | 66 | 152 | 3.0 | 7.0 | 0.00 | 0.00 | 0.00 | 71 | 1012.3 |
| 20260505121003 | 66 | 142 | 4.0 | 11.0 | 0.00 | 0.00 | 0.00 | 71 | 1012.2 |
| 20260505120503 | 66 | 128 | 3.0 | 9.0 | 0.00 | 0.00 | 0.00 | 71 | 1012.2 |
| 20260505120004 | 66 | 144 | 3.0 | 10.0 | 0.00 | 0.00 | 0.00 | 71 | 1012.2 |
| 20260505115503 | 66 | 149 | 2.0 | 8.0 | 0.00 | 0.00 | 0.00 | 71 | 1012.2 |
| 20260505115003 | 66 | 147 | 2.0 | 9.0 | 0.00 | 0.00 | 0.00 | 71 | 1012.2 |
| 20260505114503 | 66 | 143 | 4.0 | 9.0 | 0.00 | 0.00 | 0.00 | 71 | 1012.1 |
| 20260505114003 | 66 | 160 | 5.0 | 11.0 | 0.00 | 0.00 | 0.00 | 71 | 1012.0 |
| 20260505113503 | 67 | 148 | 4.0 | 9.0 | 0.00 | 0.00 | 0.00 | 71 | 1012.2 |
| 20260505113003 | 67 | 160 | 4.0 | 8.0 | 0.00 | 0.00 | 0.00 | 71 | 1012.1 |
| 20260505112503 | 67 | 146 | 5.0 | 13.0 | 0.00 | 0.00 | 0.00 | 71 | 1012.0 |
| 20260505112003 | 67 | 141 | 4.0 | 10.0 | 0.00 | 0.00 | 0.00 | 71 | 1012.0 |
| 20260505111503 | 67 | 138 | 3.0 | 8.0 | 0.00 | 0.00 | 0.00 | 71 | 1012.0 |
| 20260505111003 | 67 | 129 | 2.0 | 8.0 | 0.00 | 0.00 | 0.00 | 71 | 1012.0 |
| 20260505110503 | 67 | 163 | 2.0 | 5.0 | 0.00 | 0.00 | 0.00 | 71 | 1012.1 |
| 20260505102003 | 68 | 138 | 5.0 | 11.0 | 0.00 | 0.00 | 0.00 | 70 | 1011.9 |
| 20260505101503 | 68 | 132 | 5.0 | 14.0 | 0.00 | 0.00 | 0.00 | 70 | 1011.9 |
| 20260505101003 | 67 | 87 | 4.0 | 12.0 | 0.00 | 0.00 | 0.00 | 71 | 1011.9 |
| 20260505100503 | 67 | 142 | 5.0 | 13.0 | 0.00 | 0.00 | 0.00 | 71 | 1011.9 |
| 20260505100003 | 67 | 137 | 3.0 | 10.0 | 0.00 | 0.00 | 0.00 | 71 | 1012.1 |
| 20260505095503 | 66 | 121 | 5.0 | 13.0 | 0.00 | 0.00 | 0.00 | 71 | 1012.1 |
| 20260505095003 | 66 | 142 | 5.0 | 12.0 | 0.00 | 0.00 | 0.00 | 71 | 1012.2 |
| 20260505094503 | 66 | 143 | 5.0 | 16.0 | 0.00 | 0.00 | 0.00 | 71 | 1012.2 |
| 20260505094003 | 66 | 145 | 6.0 | 15.0 | 0.00 | 0.00 | 0.00 | 70 | 1012.2 |
| 20260505093503 | 67 | 134 | 5.0 | 14.0 | 0.00 | 0.00 | 0.00 | 70 | 1012.1 |
| 20260505093003 | 67 | 130 | 5.0 | 13.0 | 0.00 | 0.00 | 0.00 | 70 | 1012.0 |
| 20260505092503 | 67 | 142 | 4.0 | 10.0 | 0.00 | 0.00 | 0.00 | 70 | 1012.2 |
| 20260505092003 | 68 | 137 | 4.0 | 12.0 | 0.00 | 0.00 | 0.00 | 70 | 1012.2 |
| 20260505091503 | 67 | 129 | 4.0 | 13.0 | 0.00 | 0.00 | 0.00 | 70 | 1012.2 |
| 20260505091003 | 67 | 139 | 5.0 | 15.0 | 0.00 | 0.00 | 0.00 | 70 | 1012.0 |
| 20260505090503 | 67 | 153 | 4.0 | 12.0 | 0.00 | 0.00 | 0.00 | 70 | 1012.2 |
| 20260505090003 | 67 | 133 | 4.0 | 11.0 | 0.00 | 0.00 | 0.00 | 70 | 1012.2 |
| 20260505085503 | 67 | 137 | 5.0 | 10.0 | 0.00 | 0.00 | 0.00 | 70 | 1012.1 |
| 20260505085003 | 67 | 121 | 6.0 | 12.0 | 0.00 | 0.00 | 0.00 | 70 | 1012.2 |
| 20260505084503 | 67 | 123 | 4.0 | 11.0 | 0.00 | 0.00 | 0.00 | 70 | 1012.2 |
| 20260505084003 | 67 | 149 | 5.0 | 13.0 | 0.00 | 0.00 | 0.00 | 70 | 1012.3 |
| 20260505083503 | 67 | 140 | 4.0 | 10.0 | 0.00 | 0.00 | 0.00 | 70 | 1012.2 |
| 20260505083003 | 67 | 135 | 4.0 | 10.0 | 0.00 | 0.00 | 0.00 | 70 | 1012.2 |
| 20260505082503 | 67 | 114 | 4.0 | 9.0 | 0.00 | 0.00 | 0.00 | 70 | 1012.2 |
| 20260505082003 | 67 | 139 | 3.0 | 7.0 | 0.00 | 0.00 | 0.00 | 70 | 1012.2 |
| 20260505081503 | 67 | 117 | 2.0 | 7.0 | 0.00 | 0.00 | 0.00 | 71 | 1012.2 |
| 20260505081003 | 66 | 135 | 3.0 | 8.0 | 0.00 | 0.00 | 0.00 | 71 | 1012.2 |
| 20260505080503 | 66 | 128 | 4.0 | 11.0 | 0.00 | 0.00 | 0.00 | 71 | 1012.3 |
| 20260505080003 | 66 | 134 | 3.0 | 10.0 | 0.00 | 0.00 | 0.00 | 71 | 1012.3 |
| 20260505075503 | 66 | 137 | 4.0 | 12.0 | 0.00 | 0.00 | 0.00 | 71 | 1012.5 |
| 20260505075003 | 66 | 132 | 3.0 | 8.0 | 0.00 | 0.00 | 0.00 | 71 | 1012.4 |
| 20260505074503 | 66 | 110 | 3.0 | 12.0 | 0.00 | 0.00 | 0.00 | 71 | 1012.4 |
| 20260505074003 | 66 | 138 | 3.0 | 10.0 | 0.00 | 0.00 | 0.00 | 71 | 1012.3 |
| 20260505073503 | 65 | 127 | 3.0 | 8.0 | 0.00 | 0.00 | 0.00 | 71 | 1012.4 |
| 20260505073003 | 65 | 139 | 3.0 | 10.0 | 0.00 | 0.00 | 0.00 | 71 | 1012.3 |
| 20260505072503 | 65 | 141 | 5.0 | 11.0 | 0.00 | 0.00 | 0.00 | 71 | 1012.4 |
| 20260505072003 | 65 | 146 | 3.0 | 8.0 | 0.00 | 0.00 | 0.00 | 71 | 1012.3 |
| 20260505071503 | 65 | 134 | 3.0 | 10.0 | 0.00 | 0.00 | 0.00 | 71 | 1012.5 |
| 20260505071003 | 65 | 123 | 3.0 | 7.0 | 0.00 | 0.00 | 0.00 | 71 | 1012.5 |
| 20260505070503 | 65 | 141 | 3.0 | 8.0 | 0.00 | 0.00 | 0.00 | 71 | 1012.6 |
| 20260505070003 | 65 | 137 | 2.0 | 6.0 | 0.00 | 0.00 | 0.00 | 71 | 1012.8 |
| 20260505065503 | 64 | 132 | 3.0 | 11.0 | 0.00 | 0.00 | 0.00 | 71 | 1012.7 |
| 20260505065003 | 64 | 143 | 3.0 | 8.0 | 0.00 | 0.00 | 0.00 | 71 | 1012.8 |
| 20260505064503 | 64 | 126 | 3.0 | 8.0 | 0.00 | 0.00 | 0.00 | 71 | 1012.7 |
| 20260505064003 | 64 | 135 | 4.0 | 8.0 | 0.00 | 0.00 | 0.00 | 71 | 1012.6 |
| 20260505063503 | 64 | 100 | 2.0 | 6.0 | 0.00 | 0.00 | 0.00 | 71 | 1012.5 |
| 20260505063003 | 64 | 118 | 3.0 | 10.0 | 0.00 | 0.00 | 0.00 | 71 | 1012.4 |
| 20260505062503 | 64 | 119 | 3.0 | 10.0 | 0.00 | 0.00 | 0.00 | 71 | 1012.3 |
| 20260505062003 | 64 | 121 | 2.0 | 9.0 | 0.00 | 0.00 | 0.00 | 71 | 1012.3 |
| 20260505061503 | 64 | 130 | 3.0 | 8.0 | 0.00 | 0.00 | 0.00 | 71 | 1012.2 |
| 20260505061003 | 64 | 120 | 2.0 | 6.0 | 0.00 | 0.00 | 0.00 | 71 | 1012.0 |
| 20260505060503 | 64 | 90 | 3.0 | 10.0 | 0.00 | 0.00 | 0.00 | 71 | 1012.1 |
| 20260505060003 | 64 | 95 | 2.0 | 7.0 | 0.00 | 0.00 | 0.00 | 71 | 1012.2 |
| 20260505055503 | 64 | 105 | 2.0 | 6.0 | 0.00 | 0.00 | 0.00 | 71 | 1012.2 |
| 20260505055003 | 64 | 67 | 2.0 | 6.0 | 0.00 | 0.00 | 0.00 | 71 | 1012.2 |
| 20260505054003 | 62 | 45 | 2.0 | 4.0 | 0.00 | 0.00 | 0.00 | 71 | 1012.1 |
| 20260505053503 | 61 | 32 | 2.0 | 4.0 | 0.00 | 0.00 | 0.00 | 71 | 1012.1 |
| 20260505053003 | 61 | 41 | 2.0 | 4.0 | 0.00 | 0.00 | 0.00 | 72 | 1012.1 |
| 20260505052503 | 60 | 26 | 2.0 | 4.0 | 0.00 | 0.00 | 0.00 | 72 | 1012.2 |
| 20260505052003 | 60 | 22 | 2.0 | 5.0 | 0.00 | 0.00 | 0.00 | 72 | 1012.2 |
| 20260505051503 | 60 | 28 | 3.0 | 8.0 | 0.00 | 0.00 | 0.00 | 72 | 1012.1 |
| 20260505051003 | 59 | 42 | 3.0 | 7.0 | 0.00 | 0.00 | 0.00 | 72 | 1012.1 |
| 20260505050503 | 58 | 45 | 2.0 | 3.0 | 0.00 | 0.00 | 0.00 | 72 | 1012.1 |
| 20260505041503 | 55 | 5 | 2.0 | 4.0 | 0.00 | 0.00 | 0.00 | 72 | 1012.1 |
| 20260505041003 | 55 | 22 | 3.0 | 4.0 | 0.00 | 0.00 | 0.00 | 72 | 1012.0 |
| 20260505040503 | 55 | 22 | 2.0 | 4.0 | 0.00 | 0.00 | 0.00 | 72 | 1011.9 |
| 20260505040004 | 55 | 22 | 2.0 | 4.0 | 0.00 | 0.00 | 0.00 | 72 | 1012.0 |
| 20260505035503 | 56 | 22 | 2.0 | 4.0 | 0.00 | 0.00 | 0.00 | 72 | 1011.9 |
| 20260505035003 | 56 | 22 | 2.0 | 4.0 | 0.00 | 0.00 | 0.00 | 73 | 1011.8 |
| 20260505034503 | 56 | 22 | 2.0 | 4.0 | 0.00 | 0.00 | 0.00 | 73 | 1011.9 |
| 20260505034003 | 56 | 22 | 2.0 | 4.0 | 0.00 | 0.00 | 0.00 | 73 | 1011.9 |
| 20260505033503 | 56 | 34 | 2.0 | 4.0 | 0.00 | 0.00 | 0.00 | 73 | 1012.0 |
| 20260505033003 | 56 | 45 | 1.0 | 2.0 | 0.00 | 0.00 | 0.00 | 73 | 1012.1 |
| 20260505032503 | 56 | 45 | 1.0 | 3.0 | 0.00 | 0.00 | 0.00 | 73 | 1012.1 |
| 20260505032003 | 56 | 45 | 2.0 | 4.0 | 0.00 | 0.00 | 0.00 | 73 | 1012.1 |
| 20260505031503 | 56 | 45 | 1.0 | 2.0 | 0.00 | 0.00 | 0.00 | 73 | 1012.0 |
| 20260505031003 | 56 | 22 | 1.0 | 2.0 | 0.00 | 0.00 | 0.00 | 73 | 1012.0 |
| 20260505030503 | 56 | 22 | 2.0 | 3.0 | 0.00 | 0.00 | 0.00 | 73 | 1012.2 |
| 20260505030003 | 57 | 22 | 1.0 | 2.0 | 0.00 | 0.00 | 0.00 | 73 | 1012.2 |
| 20260505025503 | 57 | 22 | 1.0 | 3.0 | 0.00 | 0.00 | 0.00 | 73 | 1012.2 |
| 20260505025003 | 57 | 27 | 0.0 | 2.0 | 0.00 | 0.00 | 0.00 | 72 | 1012.3 |
| 20260505024503 | 57 | 45 | 1.0 | 2.0 | 0.00 | 0.00 | 0.00 | 72 | 1012.2 |
| 20260505024003 | 57 | 45 | 1.0 | 2.0 | 0.00 | 0.00 | 0.00 | 72 | 1012.1 |
| 20260505023503 | 57 | 45 | 0.0 | 1.0 | 0.00 | 0.00 | 0.00 | 72 | 1012.0 |
| 20260505023003 | 57 | 45 | 1.0 | 3.0 | 0.00 | 0.00 | 0.00 | 72 | 1012.2 |
| 20260505022503 | 58 | 45 | 1.0 | 2.0 | 0.00 | 0.00 | 0.00 | 72 | 1012.0 |
| 20260505022003 | 58 | 47 | 2.0 | 3.0 | 0.00 | 0.00 | 0.00 | 72 | 1012.1 |
| 20260505021503 | 58 | 54 | 2.0 | 4.0 | 0.00 | 0.00 | 0.00 | 72 | 1012.0 |
| 20260505021003 | 58 | 56 | 1.0 | 4.0 | 0.00 | 0.00 | 0.00 | 72 | 1011.9 |
| 20260505020503 | 58 | 54 | 1.0 | 2.0 | 0.00 | 0.00 | 0.00 | 72 | 1011.9 |
| 20260505020003 | 58 | 61 | 1.0 | 4.0 | 0.00 | 0.00 | 0.00 | 72 | 1011.9 |
| 20260505015503 | 58 | 52 | 2.0 | 4.0 | 0.00 | 0.00 | 0.00 | 72 | 1011.9 |
| 20260505015003 | 58 | 59 | 3.0 | 6.0 | 0.00 | 0.00 | 0.00 | 72 | 1011.9 |
| 20260505014503 | 58 | 57 | 2.0 | 4.0 | 0.00 | 0.00 | 0.00 | 72 | 1011.9 |
| 20260505014003 | 58 | 57 | 2.0 | 4.0 | 0.00 | 0.00 | 0.00 | 72 | 1012.0 |
| 20260505013503 | 58 | 64 | 2.0 | 5.0 | 0.00 | 0.00 | 0.00 | 72 | 1012.0 |
| 20260505013003 | 59 | 55 | 3.0 | 4.0 | 0.00 | 0.00 | 0.00 | 72 | 1011.9 |
| 20260505012503 | 59 | 62 | 2.0 | 4.0 | 0.00 | 0.00 | 0.00 | 72 | 1012.0 |